This demonstration page uses our WeatherBlox Daily Observations layout. Learn more.

Left ArrowRight Arrow

Hourly Observations for May 23, 2018

Temp ( °F °C ) Dew Point ( °F °C ) Humidity (%) Winds ( mph kmh ) Pressure ( in mb ) Visibility ( mi km ) Precip ( " mm )
12:53 am 00:53 Mostly Clear 69 20.6 61 16.1 76 76 N 5 7 30.04 1017 10 16 0.00 0.00
1:53 am 01:53 Clear 67 19.4 60 15.6 79 79 N 6 9 30.04 1017 10 16 0.00 0.00
2:53 am 02:53 Clear 65 18.3 60 15.6 84 84 Calm 30.05 1018 10 16 0.00 0.00
3:53 am 03:53 Clear 61 16.1 60 15.6 97 97 Calm 30.06 1018 10 16 0.00 0.00
4:53 am 04:53 Clear 60 15.6 59 15 96 96 NNW 5 7 30.08 1019 10 16 0.00 0.00
5:53 am 05:53 Clear 60 15.6 60 15.6 100 100 Calm 30.09 1019 10 16 0.00 0.00
6:53 am 06:53 Mostly Cloudy 61 16.1 60 15.6 97 97 Calm 30.10 1019 10 16 0.00 0.00
7:20 am 07:20 Partly Cloudy 62 16.7 61 16.1 96 96 Calm 30.09 1019 10 16 0.00 0.00
7:53 am 07:53 Sunny 65 18.3 61 16.1 87 87 N 3 6 30.13 1020 10 16 0.00 0.00
8:53 am 08:53 Sunny 68 20 62 16.7 81 81 N 8 13 30.13 1020 10 16 0.00 0.00
9:53 am 09:53 Sunny 70 21.1 61 16.1 73 73 N 7 11 30.14 1021 10 16 0.00 0.00
10:53 am 10:53 Sunny 72 22.2 62 16.7 71 71 N 7 11 30.15 1021 10 16 0.00 0.00
11:53 am 11:53 Sunny 73 22.8 60 15.6 64 64 ENE 9 15 30.16 1021 10 16 0.00 0.00
12:53 pm 12:53 Sunny 76 24.4 59 15 56 56 NNE 9 15 30.16 1021 10 16 0.00 0.00
1:53 pm 13:53 Sunny 77 25 58 14.4 52 52 VRB 7 11 30.16 1021 10 16 0.00 0.00
2:53 pm 14:53 Sunny 79 26.1 60 15.6 52 52 NNE 8 13 30.14 1021 10 16 0.00 0.00
3:53 pm 15:53 Mostly Sunny 80 26.7 60 15.6 51 51 ENE 7 11 30.14 1021 10 16 0.00 0.00
4:53 pm 16:53 Sunny 81 27.2 59 15 47 47 VRB 6 9 30.13 1020 10 16 0.00 0.00
5:53 pm 17:53 Sunny 80 26.7 59 15 49 49 ENE 8 13 30.13 1020 10 16 0.00 0.00
6:53 pm 18:53 Sunny 79 26.1 56 13.3 45 45 ENE 9 15 30.11 1020 10 16 0.00 0.00
7:53 pm 19:53 Sunny 76 24.4 57 13.9 52 52 ENE 9 15 30.12 1020 10 16 0.00 0.00
8:53 pm 20:53 Clear 72 22.2 58 14.4 61 61 E 7 11 30.13 1020 10 16 0.00 0.00
9:53 pm 21:53 Clear 69 20.6 57 13.9 66 66 ENE 5 7 30.14 1021 10 16 0.00 0.00
10:53 pm 22:53 Clear 67 19.4 57 13.9 71 71 ENE 6 9 30.16 1022 10 16 0.00 0.00
11:53 pm 23:53 Clear 66 18.9 57 13.9 73 73 ENE 5 7 30.18 1022 10 16 0.00 0.00

Powered by AerisWeather